AEE764 LGAV-EFHK

Flight info

Callsign AEE764
Flight time N/A
Altitude 34000
Route KRO T162 NEVRA UT162 KOROS UN133 ATFIR DCT TODRO Y94 OGOTA DCT OVDOT DCT SODGO DCT RUPUG DCT BADOR DCT KENIN DCT ROBTU/N0454F330 DCT KEFIR DCT SOMOX/N0457F340 DCT SUWGI/N0458F350 DCT BOKSU DCT GUNTA DCT KEMET Q11 INTOR
Aircraft A321/M-SDE3FGHIRWY/LB1

Departure

Time N/A
Airport Athens Eleftherios Venizelos International Airport (LGAV)

Arrival

Time 2026-04-23 17:54
Airport Helsinki Vantaa Airport (EFHK)
Time Latitude Longitude Altitude Speed Heading
2026-04-23 15:18 45.15004 22.76792 33984 ft 422 kts 352°
2026-04-23 15:19 45.20757 22.75145 33995 ft 422 kts 352°
2026-04-23 15:19 45.26508 22.73508 34000 ft 422 kts 352°
2026-04-23 15:20 45.32266 22.71878 34008 ft 421 kts 352°
2026-04-23 15:20 45.38002 22.70245 34016 ft 420 kts 352°
2026-04-23 15:21 45.43660 22.68629 33990 ft 419 kts 352°
2026-04-23 15:21 45.49370 22.66986 33998 ft 419 kts 352°
2026-04-23 15:22 45.55083 22.65341 34004 ft 419 kts 352°
2026-04-23 15:22 45.60789 22.63701 34004 ft 418 kts 352°
2026-04-23 15:23 45.66494 22.62056 34005 ft 418 kts 352°
2026-04-23 15:23 45.72203 22.60408 34002 ft 418 kts 352°
2026-04-23 15:24 45.77862 22.58763 34007 ft 418 kts 351°
2026-04-23 15:24 45.83551 22.57113 33994 ft 417 kts 351°
2026-04-23 15:25 45.89235 22.55465 33991 ft 417 kts 351°
2026-04-23 15:25 45.94921 22.53806 33992 ft 417 kts 351°
2026-04-23 15:26 46.00598 22.52148 33996 ft 416 kts 351°
2026-04-23 15:26 46.06200 22.50515 33991 ft 414 kts 351°
2026-04-23 15:27 46.11849 22.48861 33990 ft 414 kts 351°
2026-04-23 15:27 46.17490 22.47198 33989 ft 413 kts 351°
2026-04-23 15:28 46.23120 22.45542 33985 ft 412 kts 351°
2026-04-23 15:28 46.28699 22.43900 33987 ft 411 kts 351°
2026-04-23 15:29 46.34297 22.42249 33988 ft 410 kts 351°
2026-04-23 15:29 46.39891 22.40597 33984 ft 410 kts 351°
2026-04-23 15:30 46.45483 22.38934 33982 ft 410 kts 350°
2026-04-23 15:30 46.50994 22.37289 33980 ft 409 kts 350°
2026-04-23 15:31 46.56572 22.35615 33981 ft 409 kts 350°
2026-04-23 15:31 46.62149 22.33952 33950 ft 410 kts 350°
2026-04-23 15:32 46.67743 22.32284 33950 ft 410 kts 350°
2026-04-23 15:32 46.73295 22.30613 33956 ft 410 kts 350°
2026-04-23 15:33 46.78892 22.28938 33963 ft 410 kts 350°
2026-04-23 15:33 46.84401 22.27285 33961 ft 411 kts 350°
2026-04-23 15:34 46.89999 22.25589 33963 ft 411 kts 350°
2026-04-23 15:34 46.95542 22.24137 33963 ft 410 kts 353°
2026-04-23 15:35 47.01193 22.22998 33950 ft 410 kts 354°
2026-04-23 15:35 47.06850 22.21869 33952 ft 411 kts 353°
2026-04-23 15:36 47.12508 22.20658 33966 ft 411 kts 353°
2026-04-23 15:36 47.18162 22.19415 33965 ft 410 kts 353°
2026-04-23 15:37 47.23807 22.18172 33966 ft 410 kts 353°
2026-04-23 15:37 47.29406 22.16942 33965 ft 410 kts 353°
2026-04-23 15:38 47.35047 22.15709 33964 ft 409 kts 353°
2026-04-23 15:38 47.40683 22.14482 33947 ft 409 kts 353°
2026-04-23 15:39 47.46310 22.13242 33944 ft 409 kts 353°
2026-04-23 15:39 47.51935 22.12002 33950 ft 409 kts 353°
2026-04-23 15:40 47.57562 22.10767 33951 ft 409 kts 353°
2026-04-23 15:40 47.63190 22.09508 33960 ft 409 kts 352°
2026-04-23 15:41 47.68815 22.08219 33952 ft 409 kts 352°
2026-04-23 15:41 47.74439 22.06934 33950 ft 409 kts 352°
2026-04-23 15:42 47.80061 22.05658 33947 ft 408 kts 352°
2026-04-23 15:42 47.85677 22.04371 33925 ft 408 kts 353°
2026-04-23 15:43 47.91214 22.03104 33933 ft 408 kts 353°
2026-04-23 15:43 47.96832 22.01821 33933 ft 408 kts 353°
2026-04-23 15:44 48.02424 22.00537 33937 ft 409 kts 353°
2026-04-23 15:44 48.08043 21.99247 33954 ft 409 kts 353°
2026-04-23 15:45 48.13657 21.97957 33958 ft 408 kts 353°
2026-04-23 15:45 48.19222 21.96662 33959 ft 407 kts 353°
2026-04-23 15:46 48.24852 21.95347 33955 ft 407 kts 353°
2026-04-23 15:46 48.30411 21.94063 33938 ft 407 kts 353°
2026-04-23 15:47 48.35997 21.92770 33948 ft 406 kts 353°
2026-04-23 15:47 48.41595 21.91537 33949 ft 406 kts 354°
2026-04-23 15:48 48.47186 21.90393 33951 ft 406 kts 354°
2026-04-23 15:48 48.52782 21.89246 33951 ft 406 kts 354°
2026-04-23 15:49 48.58373 21.88074 33956 ft 405 kts 354°
2026-04-23 15:49 48.63956 21.86896 33962 ft 405 kts 354°
2026-04-23 15:50 48.69533 21.85720 33956 ft 405 kts 354°
2026-04-23 15:50 48.75111 21.84535 33956 ft 405 kts 354°
2026-04-23 15:51 48.80688 21.83357 33962 ft 404 kts 354°
2026-04-23 15:51 48.86214 21.82181 33968 ft 403 kts 354°
2026-04-23 15:52 48.91759 21.82005 34206 ft 397 kts
2026-04-23 15:52 48.94488 21.82675 34368 ft 397 kts
2026-04-23 15:52 48.97214 21.83343 34505 ft 397 kts
2026-04-23 15:52 48.99943 21.83995 34649 ft 397 kts
2026-04-23 15:53 49.02675 21.84637 34798 ft 397 kts
2026-04-23 15:53 49.05406 21.85274 34914 ft 398 kts
2026-04-23 15:53 49.08145 21.85916 34932 ft 398 kts
2026-04-23 15:54 49.13616 21.87206 34938 ft 398 kts
2026-04-23 15:54 49.19094 21.88509 34939 ft 398 kts
2026-04-23 15:55 49.24566 21.89812 34942 ft 397 kts
2026-04-23 15:55 49.30017 21.91113 34937 ft 396 kts
2026-04-23 15:56 49.35461 21.92420 34943 ft 396 kts
2026-04-23 15:56 49.40919 21.93714 34950 ft 397 kts
2026-04-23 15:57 49.46378 21.94986 34945 ft 397 kts
2026-04-23 15:57 49.51828 21.96259 34959 ft 396 kts
2026-04-23 15:58 49.57236 21.97536 34963 ft 395 kts
2026-04-23 15:58 49.62670 21.98836 34963 ft 395 kts
2026-04-23 15:59 49.68100 22.00132 34963 ft 394 kts
2026-04-23 15:59 49.73519 22.01422 34972 ft 393 kts
2026-04-23 16:00 49.78913 22.02713 34968 ft 391 kts
2026-04-23 16:00 49.84281 22.04001 34966 ft 390 kts
2026-04-23 16:01 49.88734 22.05060 34963 ft 389 kts
2026-04-23 16:01 49.94084 22.06334 34979 ft 387 kts
2026-04-23 16:02 49.99392 22.07611 34974 ft 386 kts
2026-04-23 16:02 50.04697 22.08895 34974 ft 386 kts
2026-04-23 16:03 50.10009 22.10181 34968 ft 386 kts
2026-04-23 16:03 50.15309 22.11480 34991 ft 386 kts
2026-04-23 16:04 50.20566 22.12766 34983 ft 384 kts
2026-04-23 16:04 50.25846 22.14038 34967 ft 383 kts
2026-04-23 16:05 50.31107 22.15311 34949 ft 382 kts
2026-04-23 16:05 50.36356 22.16594 34950 ft 381 kts
2026-04-23 16:06 50.41596 22.17886 34955 ft 380 kts
2026-04-23 16:06 50.46817 22.19172 34947 ft 379 kts
2026-04-23 16:07 50.52025 22.20445 34938 ft 378 kts
2026-04-23 16:07 50.57223 22.21726 34942 ft 378 kts
2026-04-23 16:08 50.62411 22.23017 34952 ft 377 kts
2026-04-23 16:08 50.67596 22.24310 34940 ft 377 kts
2026-04-23 16:09 50.72743 22.25585 34933 ft 376 kts
2026-04-23 16:09 50.77920 22.26871 34940 ft 376 kts
2026-04-23 16:10 50.83087 22.28155 34935 ft 376 kts
2026-04-23 16:10 50.88252 22.29443 34952 ft 375 kts
2026-04-23 16:11 50.93411 22.30741 34944 ft 375 kts
2026-04-23 16:11 50.98554 22.32034 34939 ft 374 kts
2026-04-23 16:12 51.03660 22.33313 34936 ft 374 kts
2026-04-23 16:12 51.08823 22.34623 34962 ft 373 kts
2026-04-23 16:13 51.13917 22.35920 34920 ft 372 kts
2026-04-23 16:13 51.21578 22.37864 34929 ft 371 kts
2026-04-23 16:14 51.26678 22.39157 34932 ft 371 kts
2026-04-23 16:14 51.31779 22.40457 34933 ft 371 kts
2026-04-23 16:15 51.36882 22.41758 34934 ft 371 kts
2026-04-23 16:15 51.41977 22.43060 34932 ft 371 kts
2026-04-23 16:16 51.47079 22.44366 34938 ft 371 kts
2026-04-23 16:16 51.52204 22.45352 34938 ft 371 kts
2026-04-23 16:17 51.57345 22.46112 34959 ft 371 kts
2026-04-23 16:17 51.62484 22.46901 34949 ft 370 kts
2026-04-23 16:18 51.67602 22.47743 34947 ft 369 kts
2026-04-23 16:18 51.72713 22.48605 34942 ft 369 kts
2026-04-23 16:19 51.77817 22.49467 34944 ft 369 kts
2026-04-23 16:19 51.82918 22.50329 34953 ft 368 kts
2026-04-23 16:20 51.87992 22.51187 34945 ft 366 kts
2026-04-23 16:20 51.93054 22.52035 34896 ft 366 kts
2026-04-23 16:21 51.98085 22.52887 34905 ft 366 kts
2026-04-23 16:21 52.03149 22.53747 34908 ft 366 kts
2026-04-23 16:22 52.08221 22.54610 34942 ft 366 kts
2026-04-23 16:22 52.13292 22.55474 34946 ft 366 kts
2026-04-23 16:23 52.18356 22.56338 34948 ft 366 kts
2026-04-23 16:23 52.23419 22.57201 34944 ft 366 kts
2026-04-23 16:24 52.28477 22.58069 34941 ft 365 kts
2026-04-23 16:24 52.33536 22.58932 34953 ft 365 kts
2026-04-23 16:25 52.38588 22.59803 34950 ft 365 kts
2026-04-23 16:25 52.43638 22.60674 34953 ft 365 kts
2026-04-23 16:26 52.48689 22.61558 34954 ft 365 kts
2026-04-23 16:26 52.53741 22.62436 34953 ft 365 kts
2026-04-23 16:27 52.58714 22.63297 34950 ft 364 kts
2026-04-23 16:27 52.63742 22.64176 34941 ft 364 kts
2026-04-23 16:28 52.68782 22.65057 34939 ft 364 kts
2026-04-23 16:28 52.73817 22.65929 34924 ft 364 kts
2026-04-23 16:29 52.78812 22.66807 34927 ft 364 kts
2026-04-23 16:29 52.83845 22.67694 34949 ft 363 kts
2026-04-23 16:30 52.88875 22.68577 34948 ft 363 kts
2026-04-23 16:30 52.93896 22.69460 34947 ft 363 kts
2026-04-23 16:31 52.98918 22.70347 34947 ft 363 kts
2026-04-23 16:31 53.03932 22.71247 34961 ft 363 kts
2026-04-23 16:32 53.08950 22.72144 34953 ft 362 kts
2026-04-23 16:32 53.13945 22.73034 34949 ft 361 kts
2026-04-23 16:33 53.18934 22.73919 34947 ft 361 kts
2026-04-23 16:33 53.23901 22.74809 34945 ft 361 kts
2026-04-23 16:34 53.28897 22.75709 34941 ft 361 kts
2026-04-23 16:34 53.33900 22.76612 34964 ft 362 kts
2026-04-23 16:35 53.38900 22.77516 34962 ft 361 kts
2026-04-23 16:35 53.43880 22.78427 34958 ft 362 kts
2026-04-23 16:36 53.48886 22.79337 34953 ft 362 kts
2026-04-23 16:36 53.53887 22.80235 34914 ft 361 kts
2026-04-23 16:37 53.58889 22.81138 34951 ft 362 kts
2026-04-23 16:37 53.63897 22.82057 34947 ft 362 kts
2026-04-23 16:38 53.68904 22.82979 34949 ft 362 kts
2026-04-23 16:38 53.73918 22.83904 34959 ft 362 kts
2026-04-23 16:39 53.78929 22.84820 34947 ft 362 kts
2026-04-23 16:39 53.83943 22.85750 34944 ft 362 kts
2026-04-23 16:40 53.88924 22.86674 34947 ft 362 kts
2026-04-23 16:40 53.93933 22.87598 34938 ft 362 kts
2026-04-23 16:41 53.98950 22.88527 34949 ft 362 kts
2026-04-23 16:41 54.03962 22.89458 34956 ft 362 kts
2026-04-23 16:42 54.08891 22.91283 34956 ft 368 kts 17°
2026-04-23 16:42 54.13669 22.94478 34951 ft 370 kts 16°
2026-04-23 16:43 54.18487 22.97672 34929 ft 372 kts 17°
2026-04-23 16:43 54.23314 23.00904 34924 ft 373 kts 17°
2026-04-23 16:44 54.28158 23.04163 34928 ft 374 kts 17°
2026-04-23 16:44 54.33106 23.06689 34923 ft 370 kts
2026-04-23 16:45 54.38171 23.08300 34953 ft 370 kts
2026-04-23 16:45 54.43235 23.09918 34936 ft 371 kts
2026-04-23 16:46 54.48307 23.11549 34934 ft 371 kts
2026-04-23 16:46 54.53348 23.13183 34893 ft 371 kts
2026-04-23 16:47 54.58421 23.14836 34907 ft 371 kts
2026-04-23 16:47 54.63500 23.16481 34945 ft 371 kts
2026-04-23 16:48 54.68580 23.18128 34935 ft 372 kts
2026-04-23 16:48 54.73664 23.19787 34929 ft 372 kts
2026-04-23 16:49 54.78713 23.21438 34930 ft 372 kts
2026-04-23 16:49 54.83797 23.23109 34926 ft 372 kts
2026-04-23 16:50 54.88884 23.24791 34946 ft 372 kts
2026-04-23 16:50 54.93975 23.26472 34944 ft 372 kts
2026-04-23 16:51 54.99067 23.28149 34941 ft 373 kts
2026-04-23 16:51 55.03300 23.29551 34935 ft 373 kts
2026-04-23 16:52 55.08391 23.31252 34930 ft 373 kts
2026-04-23 16:52 55.13492 23.32948 34951 ft 373 kts
2026-04-23 16:53 55.18588 23.34649 34942 ft 373 kts
2026-04-23 16:53 55.23686 23.36361 34935 ft 373 kts
2026-04-23 16:54 55.28788 23.38080 34930 ft 373 kts
2026-04-23 16:54 55.33887 23.39801 34938 ft 373 kts
2026-04-23 16:55 55.38991 23.41514 34966 ft 373 kts
2026-04-23 16:55 55.44053 23.43217 34951 ft 373 kts
2026-04-23 16:56 55.49152 23.44948 34943 ft 373 kts
2026-04-23 16:56 55.54249 23.46681 34889 ft 373 kts
2026-04-23 16:57 55.59344 23.48422 34903 ft 373 kts
2026-04-23 16:57 55.64450 23.50166 34916 ft 374 kts
2026-04-23 16:58 55.69551 23.51917 34939 ft 374 kts
2026-04-23 16:58 55.74654 23.53669 34946 ft 373 kts
2026-04-23 16:59 55.79758 23.55430 34945 ft 373 kts
2026-04-23 16:59 55.84854 23.57193 34944 ft 373 kts
2026-04-23 17:00 55.89950 23.58958 34947 ft 373 kts
2026-04-23 17:00 55.95043 23.60734 34962 ft 372 kts
2026-04-23 17:01 56.00097 23.62497 34955 ft 373 kts
2026-04-23 17:01 56.05187 23.64281 34952 ft 373 kts
2026-04-23 17:02 56.10282 23.66073 34948 ft 373 kts
2026-04-23 17:02 56.15379 23.67859 34952 ft 373 kts
2026-04-23 17:03 56.20474 23.69644 34976 ft 373 kts
2026-04-23 17:03 56.25574 23.71436 34966 ft 374 kts
2026-04-23 17:04 56.30676 23.73247 34949 ft 374 kts
2026-04-23 17:04 56.35777 23.75062 34957 ft 374 kts
2026-04-23 17:05 56.40890 23.76844 34954 ft 374 kts
2026-04-23 17:05 56.46004 23.78527 34955 ft 374 kts
2026-04-23 17:06 56.51118 23.80202 34956 ft 374 kts
2026-04-23 17:06 56.56229 23.81896 34947 ft 374 kts
2026-04-23 17:07 56.61309 23.83608 34911 ft 373 kts
2026-04-23 17:07 56.66420 23.85326 34922 ft 373 kts
2026-04-23 17:08 56.71192 23.86929 34932 ft 373 kts
2026-04-23 17:08 56.76300 23.88651 34958 ft 373 kts
2026-04-23 17:09 56.81412 23.90380 34947 ft 373 kts
2026-04-23 17:09 56.86526 23.92120 34942 ft 374 kts
2026-04-23 17:10 56.91634 23.93859 34940 ft 374 kts
2026-04-23 17:10 56.96712 23.95597 34958 ft 374 kts
2026-04-23 17:11 57.01857 23.97362 34975 ft 374 kts
2026-04-23 17:11 57.06970 23.99119 34965 ft 373 kts
2026-04-23 17:12 57.12079 24.00877 34958 ft 373 kts
2026-04-23 17:12 57.17150 24.02618 34953 ft 373 kts
2026-04-23 17:13 57.22253 24.04391 34954 ft 373 kts
2026-04-23 17:13 57.27358 24.06178 34953 ft 373 kts
2026-04-23 17:14 57.32470 24.07957 34956 ft 373 kts
2026-04-23 17:14 57.37573 24.09727 34956 ft 373 kts
2026-04-23 17:15 57.42610 24.11491 34959 ft 373 kts
2026-04-23 17:15 57.47715 24.13290 34954 ft 373 kts
2026-04-23 17:16 57.52818 24.15089 34947 ft 373 kts
2026-04-23 17:16 57.57917 24.16896 34963 ft 373 kts
2026-04-23 17:17 57.63016 24.18705 34943 ft 373 kts
2026-04-23 17:17 57.68075 24.20498 34939 ft 373 kts
2026-04-23 17:18 57.75710 24.23220 34930 ft 373 kts
2026-04-23 17:19 57.80806 24.25061 34938 ft 373 kts
2026-04-23 17:19 57.85899 24.26880 34954 ft 373 kts
2026-04-23 17:20 57.90993 24.28716 34947 ft 373 kts
2026-04-23 17:21 58.01178 24.32379 34927 ft 372 kts
2026-04-23 17:21 58.08806 24.35163 34927 ft 372 kts
2026-04-23 17:22 58.16436 24.37954 34936 ft 372 kts
2026-04-23 17:23 58.24065 24.40735 34932 ft 372 kts
2026-04-23 17:24 58.31685 24.43546 34473 ft 370 kts
2026-04-23 17:24 58.34205 24.44480 34121 ft 368 kts
2026-04-23 17:24 58.39208 24.46325 33327 ft 365 kts
2026-04-23 17:25 58.44178 24.48165 32558 ft 363 kts
2026-04-23 17:25 58.46656 24.49088 32163 ft 362 kts
2026-04-23 17:26 58.51602 24.50932 31303 ft 362 kts
2026-04-23 17:26 58.56535 24.52774 30404 ft 361 kts
2026-04-23 17:27 58.61476 24.54630 29415 ft 362 kts
2026-04-23 17:27 58.63951 24.55566 28795 ft 364 kts
2026-04-23 17:27 58.66455 24.56511 28244 ft 369 kts
2026-04-23 17:27 58.68985 24.57464 27735 ft 372 kts
2026-04-23 17:28 58.71538 24.58423 27210 ft 375 kts
2026-04-23 17:28 58.74071 24.59367 26686 ft 377 kts
2026-04-23 17:28 58.76652 24.60303 26184 ft 377 kts
2026-04-23 17:28 58.79263 24.61276 25726 ft 377 kts
2026-04-23 17:29 58.81763 24.62428 25326 ft 370 kts 11°
2026-04-23 17:29 58.84211 24.63734 24957 ft 359 kts 12°
2026-04-23 17:29 58.88922 24.66440 24279 ft 350 kts 13°
2026-04-23 17:30 58.90501 24.67346 24056 ft 350 kts 12°
2026-04-23 17:30 58.95914 24.70354 23361 ft 347 kts 12°
2026-04-23 17:30 58.98240 24.71614 23101 ft 347 kts 12°
2026-04-23 17:31 59.00566 24.72869 22835 ft 346 kts 12°
2026-04-23 17:31 59.02878 24.74115 22586 ft 344 kts 12°
2026-04-23 17:31 59.05186 24.75358 22444 ft 344 kts 12°
2026-04-23 17:31 59.07490 24.76605 22306 ft 344 kts 12°
2026-04-23 17:32 59.09792 24.77858 22170 ft 343 kts 12°
2026-04-23 17:32 59.12088 24.79116 22035 ft 342 kts 12°
2026-04-23 17:32 59.14376 24.80378 21903 ft 342 kts 12°
2026-04-23 17:32 59.16664 24.81640 21769 ft 341 kts 12°
2026-04-23 17:33 59.18807 24.82817 21686 ft 341 kts 12°
2026-04-23 17:33 59.21131 24.84085 21605 ft 350 kts 12°
2026-04-23 17:33 59.23444 24.85354 21390 ft 342 kts 12°
2026-04-23 17:33 59.25695 24.86600 21135 ft 339 kts 12°
2026-04-23 17:34 59.27958 24.87856 20874 ft 338 kts 12°
2026-04-23 17:34 59.30217 24.89107 20617 ft 336 kts 12°
2026-04-23 17:34 59.34707 24.91597 20114 ft 334 kts 12°
2026-04-23 17:35 59.36939 24.92836 19863 ft 333 kts 12°
2026-04-23 17:35 59.40663 24.94909 19153 ft 329 kts 12°
2026-04-23 17:35 59.43533 24.96510 18577 ft 319 kts 12°
2026-04-23 17:36 59.45649 24.97692 18154 ft 313 kts 12°
2026-04-23 17:36 59.47717 24.98845 17718 ft 305 kts 12°
2026-04-23 17:36 59.49737 24.99978 17288 ft 298 kts 12°
2026-04-23 17:36 59.51714 25.01090 16884 ft 292 kts 12°
2026-04-23 17:37 59.53649 25.02177 16467 ft 286 kts 12°
2026-04-23 17:37 59.55547 25.03242 16057 ft 283 kts 12°
2026-04-23 17:37 59.59325 25.05360 15211 ft 287 kts 12°
2026-04-23 17:38 59.61222 25.06421 14722 ft 290 kts 12°
2026-04-23 17:38 59.63161 25.07507 14234 ft 291 kts 13°
2026-04-23 17:38 59.65063 25.08574 13769 ft 307 kts 13°
2026-04-23 17:38 59.67110 25.09728 13290 ft 310 kts 13°
2026-04-23 17:39 59.69185 25.10901 12890 ft 311 kts 13°
2026-04-23 17:39 59.71236 25.12065 12433 ft 309 kts 13°
2026-04-23 17:39 59.73283 25.13233 11965 ft 302 kts 13°
2026-04-23 17:39 59.75247 25.14359 11859 ft 284 kts 13°
2026-04-23 17:40 59.77086 25.15419 11872 ft 266 kts 13°
2026-04-23 17:40 59.78809 25.16412 11875 ft 253 kts 13°
2026-04-23 17:40 59.80487 25.17369 11642 ft 249 kts 13°
2026-04-23 17:40 59.82153 25.18311 11200 ft 249 kts 13°
2026-04-23 17:41 59.83785 25.19506 10752 ft 251 kts 19°
2026-04-23 17:41 59.86988 25.22229 9939 ft 250 kts 19°
2026-04-23 17:41 59.88587 25.23567 9504 ft 248 kts 16°
2026-04-23 17:42 59.91948 25.24109 8592 ft 245 kts 349°
2026-04-23 17:42 59.93588 25.23165 8126 ft 246 kts 343°
2026-04-23 17:42 59.95208 25.22124 7871 ft 244 kts 343°
2026-04-23 17:43 59.96851 25.21080 7875 ft 250 kts 343°
2026-04-23 17:43 59.98504 25.20026 7553 ft 249 kts 343°
2026-04-23 17:43 59.99597 25.19329 7262 ft 249 kts 343°
2026-04-23 17:43 60.01254 25.18272 6829 ft 250 kts 343°
2026-04-23 17:44 60.02916 25.17212 6408 ft 251 kts 343°
2026-04-23 17:44 60.04580 25.16152 5975 ft 251 kts 343°
2026-04-23 17:44 60.07894 25.14039 5212 ft 248 kts 343°
2026-04-23 17:45 60.09527 25.12996 5006 ft 245 kts 342°
2026-04-23 17:45 60.12773 25.10789 5007 ft 244 kts 334°
2026-04-23 17:45 60.14123 25.08921 5008 ft 229 kts 318°
2026-04-23 17:46 60.15808 25.03731 5008 ft 223 kts 299°
2026-04-23 17:46 60.16486 25.00916 5007 ft 223 kts 299°
2026-04-23 17:46 60.17165 24.98109 5007 ft 223 kts 299°
2026-04-23 17:47 60.17720 24.95190 5007 ft 227 kts 285°
2026-04-23 17:47 60.17817 24.92062 4840 ft 229 kts 268°
2026-04-23 17:47 60.16504 24.86251 3978 ft 236 kts 230°
2026-04-23 17:48 60.15376 24.83840 3518 ft 236 kts 231°
2026-04-23 17:48 60.14264 24.81425 3076 ft 235 kts 231°
2026-04-23 17:48 60.13264 24.78896 2659 ft 228 kts 247°
2026-04-23 17:48 60.12860 24.75926 2363 ft 217 kts 274°
2026-04-23 17:49 60.13122 24.73078 2310 ft 213 kts 297°
2026-04-23 17:49 60.13964 24.70672 2302 ft 211 kts 321°
2026-04-23 17:49 60.15222 24.69224 2310 ft 210 kts 345°
2026-04-23 17:49 60.16571 24.68649 2316 ft 199 kts 349°
2026-04-23 17:50 60.17907 24.68102 2300 ft 190 kts 348°
2026-04-23 17:50 60.20368 24.68175 2310 ft 175 kts 16°
2026-04-23 17:50 60.21457 24.69236 2304 ft 176 kts 35°
2026-04-23 17:51 60.22350 24.70928 2315 ft 176 kts 42°
2026-04-23 17:51 60.23196 24.72710 2305 ft 176 kts 43°
2026-04-23 17:51 60.24866 24.76323 2054 ft 176 kts 44°
2026-04-23 17:52 60.25686 24.78114 1839 ft 167 kts 44°
2026-04-23 17:52 60.27114 24.81235 1406 ft 142 kts 43°
2026-04-23 17:52 60.27773 24.82673 1211 ft 139 kts 44°
2026-04-23 17:53 60.29089 24.85549 823 ft 140 kts 43°
2026-04-23 17:53 60.29749 24.86995 632 ft 140 kts 44°
2026-04-23 17:53 60.30411 24.88442 434 ft 140 kts 43°
2026-04-23 17:54 60.31070 24.89891 262 ft 141 kts 44°
2026-04-23 17:54 60.31725 24.91329 154 ft 132 kts 45°
2026-04-23 17:54 60.32226 24.92578 167 ft 26 kts 75°
2026-04-23 17:55 60.32271 24.92985 169 ft 5 kts 77°
2026-04-23 17:55 60.32273 24.93060 169 ft 6 kts 98°
2026-04-23 17:55 60.32249 24.93159 168 ft 9 kts 114°
2026-04-23 17:56 60.32263 24.93282 168 ft 9 kts 66°
2026-04-23 17:56 60.32339 24.93476 171 ft 10 kts 49°
2026-04-23 17:56 60.32387 24.93587 170 ft 12 kts 49°
2026-04-23 17:57 60.32442 24.93714 171 ft 13 kts 47°
2026-04-23 17:57 60.32506 24.93854 171 ft 15 kts 47°
2026-04-23 17:57 60.32658 24.94188 172 ft 17 kts 48°
2026-04-23 17:58 60.32740 24.94368 173 ft 18 kts 47°
2026-04-23 17:58 60.32828 24.94553 174 ft 19 kts 46°
2026-04-23 17:58 60.32881 24.94672 175 ft 8 kts 49°
2026-04-23 17:58 60.32915 24.94756 176 ft 8 kts 57°
2026-04-23 17:59 60.32908 24.94854 176 ft 9 kts 124°
2026-04-23 17:59 60.32846 24.94933 175 ft 11 kts 157°
2026-04-23 17:59 60.32775 24.94988 177 ft 11 kts 161°
2026-04-23 17:59 60.32706 24.95034 179 ft 10 kts 162°
2026-04-23 18:00 60.32640 24.95076 180 ft 10 kts 162°
2026-04-23 18:00 60.32565 24.95123 180 ft 12 kts 163°
2026-04-23 18:00 60.32479 24.95179 179 ft 14 kts 162°
2026-04-23 18:00 60.32375 24.95249 178 ft 16 kts 159°
2026-04-23 18:01 60.32283 24.95371 176 ft 17 kts 140°
2026-04-23 18:01 60.32208 24.95509 174 ft 14 kts 137°
2026-04-23 18:01 60.32183 24.95556 173 ft 0 kts 137°
2026-04-23 18:02 60.32183 24.95557 173 ft 1 kts 137°
2026-04-23 18:03 60.32169 24.95582 173 ft 6 kts 137°
2026-04-23 18:03 60.32120 24.95673 173 ft 13 kts 137°
2026-04-23 18:03 60.32054 24.95796 174 ft 13 kts 137°
2026-04-23 18:03 60.31999 24.95896 173 ft 10 kts 137°
2026-04-23 18:04 60.31938 24.96010 169 ft 14 kts 137°
2026-04-23 18:04 60.31904 24.96077 167 ft 1 kts 118°
2026-04-23 18:04 60.31916 24.96123 167 ft 7 kts 62°
2026-04-23 18:04 60.31962 24.96225 167 ft 13 kts 47°
2026-04-23 18:05 60.32101 24.96544 167 ft 18 kts 49°
2026-04-23 18:05 60.32152 24.96659 167 ft 0 kts 47°
2026-04-23 18:06 60.32156 24.96667 167 ft 3 kts 47°
2026-04-23 18:06 60.32179 24.96746 166 ft 10 kts 83°
2026-04-23 18:06 60.32120 24.96858 166 ft 14 kts 183°
2026-04-23 18:07 60.32029 24.96711 167 ft 20 kts 226°
2026-04-23 18:07 60.31938 24.96508 167 ft 17 kts 227°
2026-04-23 18:07 60.31880 24.96421 167 ft 7 kts 163°
2026-04-23 18:07 60.31851 24.96448 167 ft 2 kts 146°
2026-04-23 18:08 60.31842 24.96462 167 ft 1 kts 138°
2026-04-23 18:08 60.31839 24.96468 167 ft 0 kts 139°